Regional Weather Roundup
Issued by NWS

Home | Current Version | Previous Version | Graphics & Text | Print | Product List | Glossary Off
Versions: 1 2 3 4 5 6 7 8 9 10 11 12 13 14 15 16 17 18 19 20 21 22 23 24 25 26 27 28 29 30 31 32 33 34 35 36 37 38 39 40 41 42 43 44 45 46 47 48 49 50

000
ASUS43 KDTX 240110
RWRMI
MICHIGAN HOURLY REGIONAL WEATHER ROUNDUP
NATIONAL WEATHER SERVICE DETROIT/PONTIAC MI
900 PM EDT SAT MAY 23 2015

NOTE: "FAIR" INDICATES FEW OR NO CLOUDS BELOW 12,000 FEET WITH NO
SIGNIFICANT WEATHER AND/OR OBSTRUCTION TO VISIBILITY.

MIZ047>049-052>055-059>063-066>070-074>076-081>083-240200-
SOUTHEAST LOWER MICHIGAN

CITY           SKY/WX    TMP DP  RH WIND       PRES   REMARKS
ADRIAN         CLEAR     71  45  39 CALM      30.26S
ALMA           CLEAR     67  39  35 CALM      30.24S
ANN ARBOR      CLEAR     64  42  44 S6        30.26S
BAD AXE        CLEAR     66  32  28 SW3       30.23F
CARO           CLEAR     62  41  45 CALM      30.23S
DETROIT CITY   CLEAR     67  40  37 S8        30.26F
DETROIT        PTCLDY    64  41  42 SE8       30.27F
FLINT          CLEAR     70  34  26 S3        30.25F
GROSSE ILE     CLEAR     61  45  55 CALM      30.26S
HILLSDALE      CLEAR     67  45  45 CALM      30.26S
HOWELL         CLEAR     68  34  29 CALM      30.25S

CITY           SKY/WX    TMP DP  RH WIND       PRES   REMARKS
JACKSON        CLEAR     68  41  37 CALM      30.25S
LAMBERTVILLE   CLEAR     64  45  48 CALM      30.27S
LANSING        CLEAR     71  38  29 CALM      30.24F
LAPEER         FAIR      66  32  28 S3        30.25F
MASON          CLEAR     66  38  36 CALM      30.25S
MONROE         CLEAR     61  43  51 E6        30.26S
MT. CLEMENS    CLEAR     58  44  58 S6        30.24F
PONTIAC        PTCLDY    69  34  27 CALM      30.25F
PORT HOPE        N/A     70  34  26 SW6       30.21S
PORT HURON     CLEAR     59  41  51 CALM      30.26F
TRI CITIES     CLEAR     70  36  28 SW6       30.23F
MIDLAND        FAIR      67  38  34 CALM      30.22S
TROY           CLEAR     71  36  27 S5        30.28S
SAGINAW HB     CLEAR     68  34  28 SW6       30.23S
$$
MIZ043>046-050>051-056>058-064>065-071>073-077>080-240200-
SOUTHWEST LOWER MICHIGAN

CITY           SKY/WX    TMP DP  RH WIND       PRES   REMARKS
BATTLE CREEK   CLEAR     74  43  32 CALM      30.24F
BENTON HARBOR  CLEAR     65  47  52 CALM      30.21F
BIG RAPIDS     CLEAR     64  36  34 SW3       30.23S
COLDWATER      CLEAR     66  47  50 CALM      30.24S
FREMONT        FAIR      66  34  30 CALM      30.23S
HOLLAND        CLEAR     68  48  48 CALM      30.23F
GRAND RAPIDS   PTCLDY    70  39  32 W6        30.23F
IONIA          FAIR      73  37  26 W5        30.23S
KALAMAZOO      CLEAR     71  43  36 CALM      30.23S
LUDINGTON      PTCLDY    70  37  30 CALM      30.21F
MARSHALL       CLEAR     68  45  44 CALM      30.24S
MOUNT PLEASANT CLEAR     68  36  30 SW3       30.23S
MUSKEGON       MOCLDY    66  39  37 CALM      30.23F
SOUTH HAVEN    CLEAR     67  46  47 CALM      30.22S
$$
MIZ016>042-240200-
NORTHERN LOWER MICHIGAN

CITY           SKY/WX    TMP DP  RH WIND       PRES   REMARKS
ALPENA         CLEAR     70  34  26 W3        30.18S
BEAVER ISLAND  PTCLDY    58  28  31 SW14G28   30.17S
BELLAIRE       PTCLDY    62  39  42 CALM      30.19F
CADILLAC       PTCLDY    64  36  35 SW3       30.22F
CHARLEVOIX     PTCLDY    65  38  36 SW5       30.21F
FRANKFORT      MOCLDY    67  26  22 CALM      30.20F
GAYLORD        CLEAR     64  34  32 SW6       30.21S
GRAYLING       CLEAR     66  32  28 SW3       30.23S
HARBOR SPRINGS CLEAR     52  39  60 CALM      30.18F
HOUGHTON LAKE  PTCLDY    67  40  37 W7        30.22S
MANISTEE       PTCLDY    66  36  32 CALM      30.22F
OSCODA         CLEAR     69  40  35 S7        30.19R
PELLSTON       CLEAR     66  35  31 VRB3      30.18S
ROGERS CITY    CLEAR     67  37  32 SW7       30.18S
TRAVERSE CITY  MOCLDY    69  37  30 SW3       30.19S
$$
MIZ007>008-015-240200-
EASTERN UPPER MICHIGAN

CITY           SKY/WX    TMP DP  RH WIND       PRES   REMARKS
KINROSS        CLEAR     63  34  34 SW9       30.15S
MACKINAC ISLAN CLEAR     59  35  39 W13G23    30.16S
NEWBERRY       CLEAR     60  35  38 SW18      30.15R
S. S. MARIE    CLEAR     62  34  35 W13       30.14R
MUNISING         N/A     62  42  47 CALM      30.12R
$$
MIZ004>006-011>014-085-240200-
CENTRAL UPPER MICHIGAN

CITY           SKY/WX    TMP DP  RH WIND       PRES   REMARKS
MANISTIQUE     PTCLDY    50  38  62 S8        30.15S
ESCANABA       PTCLDY    61  39  44 S13G21    30.13S
MENOMINEE      PTCLDY    70  39  32 S7        30.15S
SAWYER-GWINN   PTCLDY    70  37  30 NE7       30.13R
$$
MIZ001>003-009>011-084-240200-
WESTERN UPPER MICHIGAN

CITY           SKY/WX    TMP DP  RH WIND       PRES   REMARKS
IRON MOUNTAIN  PTCLDY    71  38  29 W7        30.14R
HOUGHTON       CLEAR     68  36  30 W9        30.10S
COPPER HARBOR    N/A     74  34  23 VRB5      30.07S
IRONWOOD       PTCLDY    70  43  37 SW13G20   30.12R
$$

ABBREVIATIONS USED IN REMARKS
   TC - TEMPERATURE IN CELSIUS
  WCI - WIND CHILL INDEX
   HX - HEAT INDEX
  VSB - VISIBILITY



USA.gov is the U.S. government's official web portal to all federal, state and local government web resources and services.